Location: Barrio Las Umbrías
(40.4173°N, 4.8685°W)
Time: 13:39:21
(UTC+00:00)

Cosmos 1605 Rocket - Pass Details

Date: 17 August 2022
Orbit: 944 x 1006 km, 82.9° (Epoch: 27 September)

Event Time Altitude Azimuth Distance (km) Brightness Sun altitude
Rises 19:31:44 0° 354° (N) 3,656 7.4 -4.0°
Reaches altitude 10° 19:34:16 10° 357° (N) 2,698 6.7 -4.4°
Maximum altitude 19:40:25 70° 82° (E) 1,006 4.0 -5.5°
Drops below altitude 10° 19:46:27 10° 166° (SSE) 2,655 5.9 -6.6°
Sets 19:48:56 0° 168° (SSE) 3,594 6.6 -7.0°
